Погода в Лабытнанги

Россия / Ямало-Ненецкий автономный округ     66°39′38″N   66°23′02″E
темп.,
°C
ветер,
м/с
пор.,
м/с
влажн.,
%
обл.,
%
осадки,
мм/ч
давл.,
гПа
погр.,
м
8 марта, пн
пн823:00−28всв239995 0.1 100952
02:00−28всв249897 0.1 1009108
05:00−29всв249896 0.1 1009121
08:00−30всв239899 0.1 1008127
11:00−29всв229598 0.1 1007194
14:00−28в129399 0.0 1007232
17:00−29вюв1198100 0.1 100720
20:00−31ю019997 0.1 100719
9 марта, вт
вт923:00−32зюз229998 0.1 100719
02:00−34з129591 0.0 100819
05:00−35сз128962 0.0 100819
08:00−35ссз228722 0.0 100919
11:00−32з118413 0.0 100951
14:00−30зсз23830 0.0 1010133
17:00−33зсз23820 0.0 101128
20:00−35сз237923 0.0 101119
10 марта, ср
ср1023:00−35сз228154 0.0 101219
02:00−32сз118287 0.0 101119
05:00−31зсз128193 0.0 101119
08:00−30з1184100 0.0 101023
11:00−27юз1293100 0.0 1010157
14:00−26юз2294100 0.0 1011216
17:00−28ююз2298100 0.1 101119
20:00−33з1110084 0.0 101219
11 марта, чт
чт1123:00−34зсз019952 0.0 101319
02:00−35зюз11930 0.0 101319
05:00−35юз12890 0.0 101319
08:00−34зюз22880 0.0 101319
11:00−31юз34940 0.0 1013101
14:00−28юз35940 0.0 1013208
17:00−28юз459627 0.0 1012110
20:00−29юз479892 0.0 1011101
12 марта, пт
пт1223:00−31юз499989 0.0 1010134
02:00−31юз479995 0.0 1008111
05:00−31юз479690 0.0 100598
08:00−27юз5892100 0.0 1004166
11:00−21юз6894100 0.0 1003214
14:00−16зюз688579 0.0 1003389
17:00−17з698589 0.0 1002209
20:00−18з578698 0.0 1001121